Location: Newark
(49.3000°N, 9.4667°E)
Time: 03:15:48
(UTC+00:00)

Envisat - Visible Passes

Search period start: 20 February 2019 00:00
Search period end: 02 March 2019 00:00
Orbit: 764 x 766 km, 98.2° (Epoch: 19 February)

Date Brightness Start Highest point End Pass type
(mag) Time Alt. Az. Time Alt. Az. Time Alt. Az.
20 Feb 3.3 17:14:39 10° SE 17:19:27 45° ENE 17:24:17 10° N visible
20 Feb 5.0 18:54:18 10° SSW 18:58:39 28° W 19:03:03 10° NW visible
21 Feb 6.6 05:21:43 10° ENE 05:23:02 11° E 05:24:21 10° E visible
21 Feb 3.7 18:16:41 10° S 18:21:41 57° W 18:26:42 10° NNW visible
22 Feb 3.0 17:39:51 10° SSE 17:44:54 73° ENE 17:49:59 10° N visible
22 Feb 5.8 19:21:07 10° SW 19:24:28 18° W 19:27:51 10° NW visible
23 Feb 4.7 18:42:44 10° SSW 18:47:21 35° W 18:52:00 10° NNW visible
24 Feb 3.3 18:05:23 10° S 18:10:26 70° WSW 18:15:33 10° NNW visible
24 Feb 6.3 19:49:52 10° W 19:50:24 10° W 19:50:57 10° WNW visible
25 Feb 3.1 17:28:44 10° SSE 17:33:43 59° ENE 17:38:44 10° N visible
25 Feb 5.5 19:09:17 10° SW 19:13:08 21° W 19:17:01 10° NW visible
26 Feb 6.2 05:34:42 10° NE 05:37:36 15° E 05:40:28 10° ESE visible
26 Feb 4.3 18:31:16 10° S 18:36:04 42° W 18:40:55 10° NNW visible
27 Feb 3.1 17:54:08 10° SSE 17:59:13 86° WSW 18:04:21 10° NNW visible
27 Feb 6.1 19:36:43 10° WSW 19:39:01 13° W 19:41:20 10° WNW visible
28 Feb 5.2 18:57:34 10° SSW 19:01:48 26° W 19:06:04 10° NW visible
01 Mar 6.5 05:24:17 10° ENE 05:26:13 12° E 05:28:09 10° ESE visible
01 Mar 3.9 18:19:51 10° S 18:24:48 52° W 18:29:48 10° NNW visible
